This is the latest recevied weather packets stored in our database for station/object SQ9MHX-13. If no packets are shown the sender has not sent any weather packets the latest 10 day(s).
| Time | Temp. | Humidity | Pressure | Rain* | Wind** | Luminosity | Snow |
|---|---|---|---|---|---|---|---|
| 1777922207 | 17.78° C | 38% | 958.9 hPa | - | 0 m/s | - | - |
| 1777921908 | 17.78° C | 38% | 958.7 hPa | - | 0 m/s | - | - |
| 1777921610 | 17.78° C | 36% | 958.1 hPa | - | 0 m/s | - | - |
| 1777921311 | 17.78° C | 35% | 958 hPa | - | 0 m/s | - | - |
| 1777921012 | 17.78° C | 35% | 957.8 hPa | - | 0 m/s | - | - |
| 1777920713 | 18.89° C | 34% | 957.4 hPa | - | 0 m/s | - | - |
| 1777920414 | 18.89° C | 33% | 956.5 hPa | - | 0 m/s | - | - |
| 1777919816 | 18.89° C | 32% | 956.1 hPa | - | 0 m/s | - | - |
| 1777919518 | 20° C | 32% | 956.2 hPa | - | 0 m/s | - | - |
| 1777919219 | 20° C | 32% | 956 hPa | - | 0 m/s | - | - |
| 1777918621 | 20° C | 32% | 955.5 hPa | - | 0 m/s | - | - |
| 1777918322 | 20° C | 32% | 955.6 hPa | - | 0 m/s | - | - |
| 1777917724 | 20° C | 31% | 955.1 hPa | - | 0 m/s | - | - |
| 1777917425 | 20° C | 31% | 954.9 hPa | - | 0 m/s | - | - |
| 1777916827 | 20° C | 32% | 954.7 hPa | - | 0 m/s | - | - |
| 1777916529 | 20° C | 32% | 954.2 hPa | - | 0 m/s | - | - |
| 1777915931 | 21.11° C | 29% | 953.2 hPa | - | 0 m/s | - | - |
| 1777915034 | 22.22° C | 28% | 952.5 hPa | - | 0 m/s | - | - |
| 1777914436 | 22.22° C | 27% | 951.5 hPa | - | 0 m/s | - | - |
| 1777914137 | 22.78° C | 25% | 951 hPa | - | 0 m/s | - | - |
| 1777913838 | 22.78° C | 25% | 950.6 hPa | - | 0 m/s | - | - |
| 1777913538 | 22.78° C | 25% | 950.1 hPa | - | 0 m/s | - | - |
| 1777913239 | 23.89° C | 27% | 949.2 hPa | - | 0 m/s | - | - |
| 1777912940 | 25° C | 25% | 948.4 hPa | - | 0 m/s | - | - |
| 1777912641 | 26.11° C | 23% | 947.5 hPa | - | 0 m/s | - | - |
* Rain since midnight (hover to see other rain measurements)
** Current wind speed in m/s (hover to see current wind gust speed)